Weather History for Courtland, AL

Change the Weather History Date:

Monday, March 25, 2013

  Actual Average (KMSL) Record (KMSL)
Temperature  
Mean Temperature 35 °F 56 °F  
Max Temperature 37 °F 67 °F 92 °F (1929)
Min Temperature 33 °F 44 °F 23 °F (1966)
Degree Days  
Heating Degree Days 30 10  
Month to date heating degree days 323  
Since 1 July heating degree days 2858  
Cooling Degree Days 0 1  
Month to date cooling degree days 2  
Year to date cooling degree days 3  
Moisture  
Dew Point 25 °F    
Average Humidity 67    
Maximum Humidity 81    
Minimum Humidity 56    
Precipitation  
Precipitation 0.00 in 0.16 in 2.02 in (1965)
Month to date precipitation 3.84  
Year to date precipitation 13.11  
Snow  
Snow 0.00 in - - ()
Month to date snowfall  
Since 1 July snowfall  
Snow Depth -    
Sea Level Pressure  
Sea Level Pressure 30.03 in    
Wind  
Wind Speed 15 mph (WNW)    
Max Wind Speed 22 mph    
Max Gust Speed 32 mph    
Visibility 10 miles    
Events Snow    
T = Trace of Precipitation, MM = Missing Value Source: NWS Daily Summary

Daily Weather History Graph

Daily Weather History Graph

Search for Another Location

Airport:

Trip Planner

Search our weather history database for the weather conditions in past years. The results will help you decide how hot, cold, wet, or windy it might be!

Date:

Astronomy

Mar. 25, 2013 Rise Set
Actual Time 6:45 AM CDT 7:05 PM CDT
Civil Twilight 6:20 AM CDT 7:30 PM CDT
Nautical Twilight 5:51 AM CDT 8:00 PM CDT
Astronomical Twilight 5:21 AM CDT 8:30 PM CDT
Moon 5:38 PM CDT (3/25) 5:25 AM CDT (3/25)
Length of Visible Light 13h 09m
Length of Day
12h 19m
Waxing Gibbous, 96% of the Moon is Illuminated
Mar 25
Waxing Gibbous
Mar 27
Full
Apr 2
Last Quarter
Apr 10
New
Apr 18
First Quarter

Hourly Weather History & Observations

Time (CDT) Temp. Windchill Dew Point Humidity Pressure Visibility Wind Dir Wind Speed Gust Speed Precip Events Conditions
12:15 AM 37.4 °F 27.2 °F 26.6 °F 65% 29.85 in 10.0 mi NW 19.6 mph 29.9 mph N/A   Overcast
12:35 AM 37.4 °F 27.2 °F 26.6 °F 65% 29.86 in 10.0 mi WNW 19.6 mph 27.6 mph N/A   Overcast
12:55 AM 37.4 °F 27.5 °F 26.6 °F 65% 29.87 in 10.0 mi NW 18.4 mph 25.3 mph N/A   Overcast
1:15 AM 37.4 °F 27.5 °F 26.6 °F 65% 29.87 in 10.0 mi WNW 18.4 mph 25.3 mph N/A   Overcast
1:55 AM 35.6 °F 24.5 °F 26.6 °F 70% 29.88 in 10.0 mi NW 20.7 mph 27.6 mph N/A   Overcast
2:15 AM 35.6 °F 25.9 °F 26.6 °F 70% 29.88 in 10.0 mi WNW 16.1 mph 29.9 mph N/A   Overcast
2:35 AM 35.6 °F 26.2 °F 26.6 °F 70% 29.88 in 10.0 mi WNW 15.0 mph 19.6 mph N/A   Mostly Cloudy
2:55 AM 35.6 °F 25.9 °F 26.6 °F 70% 29.89 in 10.0 mi WNW 16.1 mph 29.9 mph N/A   Mostly Cloudy
3:15 AM 35.6 °F 25.9 °F 24.8 °F 65% 29.89 in 10.0 mi WNW 16.1 mph 32.2 mph N/A   Overcast
3:35 AM 35.6 °F 26.2 °F 26.6 °F 70% 29.90 in 10.0 mi WNW 15.0 mph 19.6 mph N/A   Overcast
3:55 AM 35.6 °F 26.2 °F 26.6 °F 70% 29.90 in 10.0 mi WNW 15.0 mph 19.6 mph N/A   Overcast
4:15 AM 35.6 °F 24.8 °F 24.8 °F 65% 29.91 in 10.0 mi WNW 19.6 mph 25.3 mph N/A   Overcast
4:35 AM 33.8 °F 25.3 °F 24.8 °F 70% 29.91 in 10.0 mi WNW 11.5 mph - N/A   Overcast
4:55 AM 33.8 °F 25.8 °F 24.8 °F 70% 29.91 in 10.0 mi WNW 10.4 mph 20.7 mph N/A   Overcast
5:35 AM 33.8 °F 25.8 °F 24.8 °F 70% 29.91 in 10.0 mi West 10.4 mph - N/A   Overcast
5:55 AM 33.8 °F 25.3 °F 24.8 °F 70% 29.91 in 10.0 mi West 11.5 mph 17.3 mph N/A   Overcast
6:15 AM 33.8 °F 25.3 °F 24.8 °F 70% 29.92 in 10.0 mi West 11.5 mph 20.7 mph N/A   Overcast
6:35 AM 33.8 °F 24.8 °F 24.8 °F 70% 29.93 in 10.0 mi West 12.7 mph 18.4 mph N/A   Overcast
6:55 AM 33.8 °F 24.8 °F 24.8 °F 70% 29.93 in 10.0 mi West 12.7 mph 18.4 mph N/A   Overcast
7:15 AM 33.8 °F 23.2 °F 24.8 °F 70% 29.94 in 10.0 mi West 17.3 mph 21.9 mph N/A   Overcast
7:35 AM 33.8 °F 24.8 °F 24.8 °F 70% 29.95 in 10.0 mi West 12.7 mph 19.6 mph N/A   Overcast
7:55 AM 33.8 °F 25.3 °F 24.8 °F 70% 29.97 in 10.0 mi WNW 11.5 mph 19.6 mph N/A   Overcast
8:15 AM 33.8 °F 25.8 °F 24.8 °F 70% 29.98 in 10.0 mi WNW 10.4 mph - N/A   Overcast
8:55 AM 33.8 °F 23.5 °F 23.0 °F 65% 30.00 in 10.0 mi WNW 16.1 mph 23.0 mph N/A   Overcast
9:15 AM 33.8 °F 21.9 °F 23.0 °F 65% 30.00 in 10.0 mi WNW 21.9 mph 25.3 mph N/A   Overcast
9:35 AM 33.8 °F 23.5 °F 23.0 °F 65% 30.01 in 10.0 mi WNW 16.1 mph 23.0 mph N/A   Overcast
9:55 AM 33.8 °F 23.9 °F 23.0 °F 65% 30.02 in 10.0 mi WNW 15.0 mph 24.2 mph N/A   Overcast
10:15 AM 33.8 °F 23.9 °F 23.0 °F 65% 30.02 in 10.0 mi West 15.0 mph 26.5 mph N/A   Overcast
10:35 AM 33.8 °F 23.9 °F 23.0 °F 65% 30.03 in 10.0 mi WNW 15.0 mph 26.5 mph N/A   Overcast
10:55 AM 33.8 °F 22.8 °F 23.0 °F 65% 30.04 in 10.0 mi WNW 18.4 mph 26.5 mph N/A   Overcast
11:15 AM 33.8 °F 24.3 °F 23.0 °F 65% 30.04 in 10.0 mi WNW 13.8 mph 21.9 mph N/A   Overcast
11:35 AM 35.6 °F 26.2 °F 23.0 °F 60% 30.05 in 10.0 mi West 15.0 mph 21.9 mph N/A   Overcast
11:55 AM 35.6 °F 26.2 °F 23.0 °F 60% 30.05 in 10.0 mi WNW 15.0 mph 19.6 mph N/A   Overcast
12:15 PM 35.6 °F 26.2 °F 23.0 °F 60% 30.05 in 10.0 mi West 15.0 mph 23.0 mph N/A   Overcast
12:35 PM 35.6 °F 25.2 °F 23.0 °F 60% 30.05 in 10.0 mi WNW 18.4 mph 25.3 mph N/A   Overcast
12:55 PM 35.6 °F 26.6 °F 23.0 °F 60% 30.05 in 10.0 mi WNW 13.8 mph 21.9 mph N/A   Overcast
1:15 PM 37.4 °F 28.9 °F 23.0 °F 56% 30.05 in 10.0 mi WNW 13.8 mph 25.3 mph N/A   Overcast
1:35 PM 37.4 °F 28.9 °F 23.0 °F 56% 30.05 in 10.0 mi WNW 13.8 mph 26.5 mph N/A   Overcast
1:55 PM 37.4 °F 28.5 °F 23.0 °F 56% 30.05 in 10.0 mi WNW 15.0 mph 20.7 mph N/A   Overcast
2:15 PM 37.4 °F 27.2 °F 23.0 °F 56% 30.05 in 10.0 mi WNW 19.6 mph 25.3 mph N/A   Overcast
2:35 PM 37.4 °F 27.2 °F 23.0 °F 56% 30.05 in 10.0 mi NW 19.6 mph 25.3 mph N/A   Overcast
2:55 PM 37.4 °F 27.5 °F 23.0 °F 56% 30.05 in 10.0 mi WNW 18.4 mph 25.3 mph N/A   Overcast
3:15 PM 37.4 °F 27.2 °F 24.8 °F 60% 30.05 in 10.0 mi NW 19.6 mph 24.2 mph N/A   Overcast
3:35 PM 37.4 °F 28.2 °F 23.0 °F 56% 30.06 in 10.0 mi WNW 16.1 mph 25.3 mph N/A   Overcast
3:55 PM 37.4 °F 29.3 °F 26.6 °F 65% 30.07 in 10.0 mi WNW 12.7 mph 25.3 mph N/A   Overcast
4:15 PM 37.4 °F 26.6 °F 24.8 °F 60% 30.07 in 10.0 mi NW 21.9 mph 29.9 mph N/A   Overcast
4:35 PM 37.4 °F 28.2 °F 24.8 °F 60% 30.08 in 10.0 mi WNW 16.1 mph 21.9 mph N/A   Overcast
4:55 PM 37.4 °F 28.5 °F 23.0 °F 56% 30.09 in 10.0 mi WNW 15.0 mph 21.9 mph N/A   Overcast
5:15 PM 35.6 °F 25.5 °F 23.0 °F 60% 30.09 in 10.0 mi WNW 17.3 mph 26.5 mph N/A   Overcast
5:35 PM 35.6 °F 26.6 °F 24.8 °F 65% 30.10 in 10.0 mi NW 13.8 mph - N/A   Overcast
5:55 PM 35.6 °F 26.6 °F 24.8 °F 65% 30.10 in 10.0 mi NW 13.8 mph 20.7 mph N/A   Overcast
6:15 PM 35.6 °F 26.2 °F 26.6 °F 70% 30.11 in 10.0 mi NW 15.0 mph 21.9 mph N/A   Overcast
6:35 PM 35.6 °F 28.0 °F 26.6 °F 70% 30.12 in 10.0 mi NW 10.4 mph 17.3 mph N/A   Overcast
6:55 PM 35.6 °F 27.1 °F 26.6 °F 70% 30.13 in 10.0 mi WNW 12.7 mph - N/A   Overcast
7:15 PM 33.8 °F 25.8 °F 28.4 °F 81% 30.14 in 7.0 mi WNW 10.4 mph - N/A Snow Light Snow
7:35 PM 35.6 °F 29.9 °F 26.6 °F 70% 30.14 in 10.0 mi NW 6.9 mph - N/A   Overcast
7:55 PM 35.6 °F 29.2 °F 26.6 °F 70% 30.15 in 10.0 mi WNW 8.1 mph - N/A   Overcast
8:15 PM 35.6 °F 29.9 °F 26.6 °F 70% 30.15 in 10.0 mi WNW 6.9 mph - N/A   Overcast
8:35 PM 35.6 °F 30.7 °F 26.6 °F 70% 30.15 in 10.0 mi WNW 5.8 mph - N/A   Overcast
8:55 PM 35.6 °F 27.5 °F 26.6 °F 70% 30.16 in 10.0 mi WNW 11.5 mph 16.1 mph N/A   Overcast
9:15 PM 33.8 °F 27.7 °F 26.6 °F 75% 30.17 in 10.0 mi WNW 6.9 mph - N/A   Overcast
9:35 PM 35.6 °F 28.6 °F 26.6 °F 70% 30.17 in 10.0 mi WNW 9.2 mph - N/A   Overcast
9:55 PM 33.8 °F 25.8 °F 26.6 °F 75% 30.18 in 10.0 mi WNW 10.4 mph - N/A   Overcast
10:15 PM 33.8 °F 25.8 °F 26.6 °F 75% 30.18 in 10.0 mi WNW 10.4 mph - N/A   Overcast
10:35 PM 33.8 °F 26.4 °F 26.6 °F 75% 30.18 in 10.0 mi WNW 9.2 mph 17.3 mph N/A   Overcast
10:55 PM 33.8 °F 25.3 °F 26.6 °F 75% 30.18 in 10.0 mi WNW 11.5 mph - N/A   Overcast
11:15 PM 33.8 °F 25.8 °F 26.6 °F 75% 30.19 in 10.0 mi WNW 10.4 mph 19.6 mph N/A   Overcast
11:35 PM 33.8 °F 26.4 °F 26.6 °F 75% 30.18 in 10.0 mi WNW 9.2 mph - N/A   Overcast
11:55 PM 33.8 °F 25.8 °F 26.6 °F 75% 30.19 in 10.0 mi NW 10.4 mph - N/A   Overcast